This demonstration page uses our WeatherBlox Daily Observations layout. Learn more.

Left ArrowRight Arrow

Hourly Observations for July 5, 2022

Temp ( °F °C ) Dew Point ( °F °C ) Humidity (%) Winds ( mph kmh ) Pressure ( in mb ) Visibility ( mi km ) Precip ( " mm )
12:52 am 00:52 Clear 81 27.2 73 22.8 77 77 SE 9 15 29.81 1009 10 16 0.00 0.00
1:52 am 01:52 Clear 80 26.7 72 22.2 76 76 SE 12 19 29.80 1009 10 16 0.00 0.00
2:52 am 02:52 Partly Cloudy 79 26.1 72 22.2 79 79 SSE 12 19 29.80 1009 10 16 0.00 0.00
3:52 am 03:52 Partly Cloudy 79 26.1 71 21.7 77 77 SE 9 15 29.80 1009 10 16 0.00 0.00
4:52 am 04:52 Partly Cloudy 79 26.1 70 21.1 74 74 SSE 10 17 29.80 1009 10 16 0.00 0.00
5:52 am 05:52 Mostly Cloudy 79 26.1 69 20.6 72 72 SSE 14 22 29.80 1009 10 16 0.00 0.00
6:52 am 06:52 Mostly Cloudy 80 26.7 69 20.6 69 69 SSE 9 15 29.81 1010 10 16 0.00 0.00
7:52 am 07:52 Mostly Cloudy 83 28.3 69 20.6 63 63 S 10 17 29.81 1009 10 16 0.00 0.00
8:52 am 08:52 Mostly Cloudy 84 28.9 68 20 59 59 S 7 11 29.82 1010 10 16 0.00 0.00
9:52 am 09:52 Mostly Cloudy 86 30 69 20.6 57 57 S 10 17 29.81 1010 10 16 0.00 0.00
10:52 am 10:52 Mostly Cloudy 88 31.1 69 20.6 54 54 S 10 17 29.81 1009 10 16 0.00 0.00
11:52 am 11:52 Mostly Cloudy 89 31.7 68 20 50 50 S 7 11 29.81 1009 10 16 0.00 0.00
12:52 pm 12:52 Partly Cloudy 90 32.2 70 21.1 52 52 SSE 10 17 29.80 1009 10 16 0.00 0.00
1:52 pm 13:52 Partly Cloudy 93 33.9 70 21.1 47 47 S 13 20 29.79 1009 10 16 0.00 0.00
2:52 pm 14:52 Partly Cloudy 94 34.4 72 22.2 49 49 SSE 14 22 29.76 1008 10 16 0.00 0.00
3:52 pm 15:52 Mostly Sunny 96 35.6 71 21.7 44 44 S 15 24 29.75 1007 10 16 0.00 0.00
4:52 pm 16:52 Mostly Cloudy 97 36.1 70 21.1 42 42 S 9 15 29.75 1007 10 16 0.00 0.00
5:52 pm 17:52 Mostly Cloudy 96 35.6 71 21.7 44 44 S 13 20 29.75 1007 10 16 0.00 0.00
6:52 pm 18:52 Mostly Cloudy with Thunderstorms 79 26.1 67 19.4 67 67 N 36 57 29.77 1008 10 16 0.00 0.00
7:03 pm 19:03 Mostly Cloudy with Strong Thunderstorms 72 22.2 70 21.1 94 94 N 31 50 29.79 1009 1 2 0.01 0.25
7:19 pm 19:19 Windy with Storms Likely 73 22.8 70 21.1 90 90 NNE 22 35 29.82 1010 2 3 0.48 12.19
7:27 pm 19:27 Windy with Storms Likely 74 23.3 70 21.1 88 88 NE 20 31 29.83 1010 5 8 0.57 14.48
7:38 pm 19:38 Cloudy with Light Rain 73 22.8 70 21.1 90 90 ENE 18 30 29.83 1010 9 14 0.58 14.73
7:52 pm 19:52 Cloudy with Light Rain 76 24.4 69 20.6 79 79 NE 23 37 29.83 1010 10 16 0.59 14.99
8:52 pm 20:52 Mostly Cloudy 75 23.9 69 20.6 82 82 ENE 10 17 29.86 1011 10 16 0.00 0.00
9:52 pm 21:52 Mostly Cloudy 74 23.3 68 20 82 82 ESE 14 22 29.86 1011 10 16 0.00 0.00
10:52 pm 22:52 Mostly Cloudy 74 23.3 68 20 82 82 ESE 9 15 29.85 1011 10 16 0.00 0.00
11:52 pm 23:52 Mostly Cloudy 73 22.8 67 19.4 81 81 SSE 7 11 29.85 1011 10 16 0.00 0.00

Powered by AerisWeather